Change the Weather History Date:

Monday, February 17, 2014

  Actual Average Record
Temperature  
Mean Temperature 19 °F -  
Max Temperature 26 °F 40 °F 61 °F (2011)
Min Temperature 12 °F 23 °F 0 °F (1979)
Degree Days  
Heating Degree Days 46    
Moisture  
Dew Point 5 °F    
Average Humidity 53    
Maximum Humidity 65    
Minimum Humidity 37    
Precipitation  
Precipitation 0.00 in - - ()
Sea Level Pressure  
Sea Level Pressure 30.34 in    
Wind  
Wind Speed 7 mph (NW)    
Max Wind Speed 14 mph    
Max Gust Speed -    
Visibility 10 miles    
Events      
Averages and records for this station are not official NWS values.
T = Trace of Precipitation, MM = Missing Value Source: NWS Daily Summary

Daily Weather History Graph

Daily Weather History Graph

Search for Another Location

Airport or City:

Trip Planner

Search our weather history database for the weather conditions in past years. The results will help you decide how hot, cold, wet, or windy it might be!

Date:

Astronomy

Feb. 17, 2014 Rise Set
Actual Time 6:55 AM EST 5:43 PM EST
Civil Twilight 6:27 AM EST 6:10 PM EST
Nautical Twilight 5:56 AM EST 6:42 PM EST
Astronomical Twilight 5:24 AM EST 7:14 PM EST
Moon 8:35 PM EST (2/17) 7:54 AM EST (2/17)
Length of Visible Light 11h 43m
Length of Day
10h 47m
Waning Gibbous, 93% of the Moon is Illuminated
Feb 17
Waning Gibbous
Feb 22
Last Quarter
Mar 1
New
Mar 8
First Quarter
Mar 16
Full

Hourly Weather History & Observations

Time (EST) Temp. Windchill Dew Point Humidity Pressure Visibility Wind Dir Wind Speed Gust Speed Precip Events Conditions
12:53 AM 21.9 °F 11.0 °F 10.0 °F 60% 30.22 in 10.0 mi North 10.4 mph - N/A   Scattered Clouds
1:53 AM 19.9 °F 7.3 °F 8.1 °F 60% 30.25 in 10.0 mi NNW 12.7 mph - N/A   Clear
2:53 AM 19.0 °F 6.1 °F 6.1 °F 57% 30.27 in 10.0 mi NNW 12.7 mph - N/A   Clear
3:53 AM 17.1 °F 3.0 °F 3.9 °F 56% 30.30 in 10.0 mi NNW 13.8 mph - N/A   Clear
4:53 AM 14.0 °F 5.1 °F 3.0 °F 62% 30.33 in 10.0 mi West 5.8 mph - N/A   Clear
5:53 AM 14.0 °F 6.5 °F 3.0 °F 62% 30.36 in 10.0 mi SW 4.6 mph - N/A   Clear
6:53 AM 12.9 °F 6.9 °F 1.9 °F 62% 30.38 in 10.0 mi WSW 3.5 mph - N/A   Clear
7:53 AM 12.0 °F 0.5 °F 1.9 °F 64% 30.42 in 10.0 mi West 8.1 mph - N/A   Clear
10:53 AM 19.9 °F 11.1 °F 1.0 °F 44% 30.45 in 10.0 mi NW 6.9 mph - N/A   Clear
11:53 AM 21.9 °F 14.5 °F 1.9 °F 42% 30.43 in 10.0 mi West 5.8 mph - N/A   Clear
12:53 PM 23.0 °F 14.7 °F 3.0 °F 42% 30.41 in 10.0 mi WNW 6.9 mph - N/A   Clear
1:53 PM 24.1 °F 18.2 °F 3.0 °F 40% 30.40 in 10.0 mi WNW 4.6 mph - N/A   Clear
2:53 PM 25.0 °F - 3.9 °F 41% 30.39 in 10.0 mi Calm Calm - N/A   Clear
3:53 PM 26.1 °F - 3.0 °F 37% 30.38 in 10.0 mi Calm Calm - N/A   Clear
4:53 PM 25.0 °F - 3.9 °F 41% 30.36 in 10.0 mi Calm Calm - N/A   Clear
5:53 PM 24.1 °F - 3.0 °F 40% 30.36 in 10.0 mi Calm Calm - N/A   Clear
6:53 PM 21.0 °F - 3.9 °F 48% 30.35 in 10.0 mi Calm Calm - N/A   Clear
7:53 PM 19.0 °F - 6.1 °F 57% 30.34 in 10.0 mi Calm Calm - N/A   Clear
8:53 PM 19.0 °F 13.9 °F 6.1 °F 57% 30.32 in 10.0 mi East 3.5 mph - N/A   Partly Cloudy
9:53 PM 19.0 °F - 8.1 °F 62% 30.31 in 10.0 mi Calm Calm - N/A   Mostly Cloudy
10:53 PM 19.9 °F 13.4 °F 10.0 °F 65% 30.27 in 10.0 mi East 4.6 mph - N/A   Overcast
11:53 PM 21.9 °F - 9.0 °F 58% 30.27 in 10.0 mi Calm Calm - N/A   Partly Cloudy